Weather History for EGPU - November, 2012

Change the Weather History Date:

Saturday, November 3, 2012

  Actual Average Record
Temperature  
Mean Temperature 41 °F -  
Max Temperature 45 °F 49 °F 57 °F (2011)
Min Temperature 37 °F 41 °F 37 °F (2012)
Degree Days  
Heating Degree Days 24    
Moisture  
Dew Point 37 °F    
Average Humidity 82    
Maximum Humidity 93    
Minimum Humidity 69    
Precipitation  
Precipitation 0.75 in 0.16 in - ()
Sea Level Pressure  
Sea Level Pressure 29.07 in    
Wind  
Wind Speed 17 mph ()    
Max Wind Speed 26 mph    
Max Gust Speed 39 mph    
Visibility 6.5 miles    
Events Rain    
Averages and records for this station are not official NWS values.
T = Trace of Precipitation, MM = Missing Value Source: Averaged Metar Reports

Daily Weather History Graph

Daily Weather History Graph

Search for Another Location

Airport or City:

Trip Planner

Search our weather history database for the weather conditions in past years. The results will help you decide how hot, cold, wet, or windy it might be!

Date:

Astronomy

Nov. 03, 2012 Rise Set
Actual Time 7:41 AM GMT 4:40 PM GMT
Civil Twilight 7:00 AM GMT 5:20 PM GMT
Nautical Twilight 6:15 AM GMT 6:05 PM GMT
Astronomical Twilight 5:31 AM GMT 6:49 PM GMT
Moon 7:47 PM GMT (11/3) 11:58 AM GMT (11/3)
Length of Visible Light 10h 20m
Length of Day
8h 58m
Waning Gibbous, 82% of the Moon is Illuminated
Nov 3
Waning Gibbous
Nov 7
Last Quarter
Nov 13
New
Nov 20
First Quarter
Nov 28
Full

Hourly Weather History & Observations

Time (GMT) Temp. Windchill Dew Point Humidity Pressure Visibility Wind Dir Wind Speed Gust Speed Precip Events Conditions
12:20 AM 41.0 °F 31.4 °F 37.4 °F 87% 29.09 in 5.6 mi SW 21.9 mph 39.1 mph N/A Rain Rain Showers
12:50 AM 41.0 °F 31.9 °F 37.4 °F 87% 29.06 in 6.2 mi SW 19.6 mph - N/A Rain Light Rain Showers
1:20 AM 42.8 °F 34.8 °F 35.6 °F 76% 29.06 in 6.2 mi SW 17.3 mph - N/A   Scattered Clouds
1:50 AM 41.0 °F 33.5 °F 33.8 °F 76% 29.06 in 6.2 mi SW 13.8 mph - N/A   Partly Cloudy
2:20 AM 42.8 °F 34.8 °F 35.6 °F 76% 29.06 in 6.2 mi SSW 17.3 mph - N/A   Partly Cloudy
2:50 AM 42 °F - 35 °F 69% 29.06 in 31 mi SW 15.0 mph - - Rain Rain
2:50 AM 42.8 °F 35.4 °F 35.6 °F 76% 29.06 in 6.2 mi SW 15.0 mph - N/A   Partly Cloudy
3:20 AM 41.0 °F 32.2 °F 35.6 °F 81% 29.06 in 6.2 mi WSW 18.4 mph - N/A   Partly Cloudy
3:50 AM 39.2 °F 30.5 °F 35.6 °F 87% 29.06 in 6.2 mi SW 16.1 mph - N/A   Partly Cloudy
4:20 AM 39.2 °F 30.8 °F 35.6 °F 87% 29.06 in 6.2 mi SW 15.0 mph - N/A Rain Light Rain Showers
4:50 AM 39.2 °F 30.5 °F 35.6 °F 87% 29.06 in 6.2 mi WSW 16.1 mph - N/A Rain Rain Showers
5:20 AM 37.4 °F 31.4 °F 33.8 °F 87% 29.06 in 6.2 mi SW 8.1 mph - N/A Rain Light Rain Showers
5:50 AM 37 °F - 34 °F 83% 29.07 in 31 mi SSW 8.1 mph - - Rain Rain
5:50 AM 37.4 °F 31.4 °F 33.8 °F 87% 29.06 in 6.2 mi SSW 8.1 mph - N/A   Scattered Clouds
6:20 AM 39.2 °F 31.2 °F 35.6 °F 87% 29.06 in 6.2 mi SW 13.8 mph - N/A   Partly Cloudy
6:50 AM 37.4 °F 32.8 °F 32.0 °F 81% 29.06 in 6.2 mi SW 5.8 mph - N/A   Unknown
7:20 AM 37.4 °F 34.9 °F 33.8 °F 87% 29.06 in 6.2 mi Variable 3.5 mph - N/A   Partly Cloudy
7:50 AM 41.0 °F 33.1 °F 33.8 °F 76% 29.06 in 6.2 mi SSW 15.0 mph - N/A   Partly Cloudy
8:20 AM 41.0 °F 33.1 °F 35.6 °F 81% 29.06 in 6.2 mi SSW 15.0 mph - N/A   Partly Cloudy
8:50 AM 39 °F - 34 °F 76% 29.08 in 31 mi SW 12.7 mph - -   Scattered Clouds
8:50 AM 39.2 °F 31.2 °F 33.8 °F 81% 29.06 in 6.2 mi SW 13.8 mph - N/A   Scattered Clouds
9:20 AM 41.0 °F 33.5 °F 35.6 °F 81% 29.06 in 6.2 mi SSW 13.8 mph - N/A   Scattered Clouds
9:50 AM 41.0 °F 33.9 °F 35.6 °F 81% 29.06 in 6.2 mi SSW 12.7 mph - N/A   Scattered Clouds
10:20 AM 42.8 °F 34.0 °F 35.6 °F 76% 29.06 in 6.2 mi South 20.7 mph - N/A   Scattered Clouds
10:50 AM 42.8 °F 33.8 °F 33.8 °F 70% 29.06 in 6.2 mi South 21.9 mph - N/A   Partly Cloudy
11:20 AM 44.6 °F 35.5 °F 37.4 °F 76% 29.06 in 6.2 mi South 25.3 mph - N/A   Partly Cloudy
11:50 AM 42 °F - 36 °F 72% 29.08 in 17 mi SSW 21.9 mph - - Rain Rain
11:50 AM 42.8 °F 33.8 °F 35.6 °F 76% 29.06 in 6.2 mi SSW 21.9 mph - N/A   Scattered Clouds
12:20 PM 42.8 °F 33.1 °F 37.4 °F 81% 29.06 in 6.2 mi South 25.3 mph - N/A   Scattered Clouds
12:50 PM 42.8 °F 33.3 °F 37.4 °F 81% 29.06 in 6.2 mi South 24.2 mph - N/A   Scattered Clouds
1:20 PM 42.8 °F 33.3 °F 37.4 °F 81% 29.03 in 6.2 mi SSW 24.2 mph - N/A Rain Light Rain Showers
1:50 PM 42.8 °F 32.9 °F 39.2 °F 87% 29.06 in 6.2 mi South 26.5 mph - N/A Rain Light Rain Showers
2:20 PM 41.0 °F 30.5 °F 37.4 °F 87% 29.03 in 4.3 mi South 26.5 mph - N/A Rain Rain Showers
2:50 PM 41 °F - 38 °F 83% 29.05 in 6 mi SSW 24.2 mph - - Rain Light Rain
2:50 PM 41.0 °F 30.9 °F 37.4 °F 87% 29.03 in 5.0 mi SSW 24.2 mph - N/A Rain Light Rain
3:20 PM 41.0 °F 30.7 °F 37.4 °F 87% 29.03 in 3.7 mi South 25.3 mph - N/A Rain Rain
3:50 PM 42.8 °F 32.9 °F 39.2 °F 87% 29.03 in 3.1 mi South 26.5 mph - N/A Rain Rain
4:20 PM 41.0 °F 32.2 °F 39.2 °F 93% 29.03 in - SW 18.4 mph - N/A Rain Rain
4:50 PM 42.8 °F 33.8 °F 39.2 °F 87% 29.03 in - SSW 21.9 mph 33.4 mph N/A Rain Rain
5:20 PM 42.8 °F 32.9 °F 39.2 °F 87% 29.03 in 5.0 mi SW 26.5 mph 38.0 mph N/A Rain Rain
5:50 PM 43 °F - 39 °F 80% 29.06 in 4 mi SSW 24.2 mph - - Rain Heavy Rain
5:50 PM 42.8 °F 33.3 °F 39.2 °F 87% 29.06 in 3.1 mi SSW 24.2 mph 35.7 mph N/A Rain Rain
6:20 PM 42.8 °F 32.9 °F 39.2 °F 87% 29.06 in 5.0 mi SSW 26.5 mph - N/A Rain Light Rain
6:50 PM 42.8 °F 33.3 °F 39.2 °F 87% 29.06 in 3.7 mi SSW 24.2 mph - N/A Rain Rain
7:20 PM 44.6 °F 35.7 °F 39.2 °F 81% 29.06 in 6.2 mi SSW 24.2 mph - N/A   Partly Cloudy
7:50 PM 44.6 °F 35.9 °F 39.2 °F 81% 29.06 in 6.2 mi SSW 23.0 mph - N/A Rain Light Rain Showers
8:20 PM 44.6 °F 35.9 °F 39.2 °F 81% 29.09 in 6.2 mi SSW 23.0 mph - N/A Rain Light Rain Showers
8:50 PM 45 °F - 39 °F 71% 29.10 in 17 mi SSW 21.9 mph - - Rain Rain
8:50 PM 44.6 °F 36.1 °F 39.2 °F 81% 29.09 in 6.2 mi SSW 21.9 mph - N/A   Mostly Cloudy
9:20 PM 44.6 °F 36.4 °F 39.2 °F 81% 29.09 in 6.2 mi SSW 20.7 mph - N/A   Mostly Cloudy
9:50 PM 44.6 °F 36.4 °F 39.2 °F 81% 29.09 in 6.2 mi SSW 20.7 mph - N/A   Mostly Cloudy
10:20 PM 44.6 °F 36.4 °F 39.2 °F 81% 29.12 in 6.2 mi South 20.7 mph - N/A   Mostly Cloudy
10:50 PM 44.6 °F 37.8 °F 39.2 °F 81% 29.12 in 6.2 mi SSW 15.0 mph - N/A   Mostly Cloudy
11:20 PM 44.6 °F 37.2 °F 39.2 °F 81% 29.12 in 6.2 mi SSW 17.3 mph - N/A   Mostly Cloudy
11:50 PM 45 °F - 39 °F 73% 29.13 in 18 mi SSW 18.4 mph - - Rain Rain
11:50 PM 44.6 °F 36.9 °F 39.2 °F 81% 29.12 in 6.2 mi SSW 18.4 mph - N/A   Mostly Cloudy